Volver al catálogo

STARLINK-32752

ActivoComunicacionesVLEO
NORAD 62567·PAYLOAD·🇺🇸 United States

Lanzado Jan 10, 2025 desde Cape Canaveral Space Force Station

Loading…

Próximos Pases (próximas 24 horas)

TLE

ActualizadoSource: CelesTrak SupGP

Época: Sep 14, 2026, 22:25 UTC

1 62567C 25006P   26257.93451389  .00007021  00000+0  25432-3 0  2578
2 62567  43.0024 303.9140 0001671 265.7691 113.6499 15.27572418    18

Sigue STARLINK-32752 en tiempo real con AllMySat

Download on the App Store